SCP
0 0 0 0 0 0 0 0 0 0 0 0 0 0 0 0 0 0 0 0 0 0 0 0 0 0 0 0 0 0 0 0 0 0 0 0 0 0
0 0 0 0 0 0 0 0 0 0 0 0 0 0 0 0 0 0 0 0 0 0 0 0 0 0 0 0 0 0 0 0 0 0 0 0 0 0
0 0 0 0 -0 -0 -0 -0 -0 0 0 0 0 0 0 0 0 0 0 0 0 0 0 0 0 0 0 0 0 0 0 0 0 0 0 0 0 0
0 0 0 0 0 0 0 0 0 0 0 0 0 0 0 0 0 0 0 0 0 0 0 0 0 0 0 0 0 0 0 0 0 0 0 0 0 0
0 0 0 0 0 0 0 0 0 0 0 0 0 0 0 0 0 0 0 0 0 0 0 0 0 0 0 0 0 0 0 0 0 0 0 0 0 0
0 0 0 0 0 0 0 0 0 0 0 0 0 0 0 0 0 0 0 0 0 0 0 0 0 0 0 0 0 0 0 0 0 0 0 0 0 0
0 0 0 0 0 0 0 0 0 0 0 0 0 0 0 0 0 0 0 0 0 0 0 0 0 0 0 0 0 0 0 0 0 0 0 0 0 0
0 0 0 0 0 0 0 0 0 0 0 0 0 0 0 0 0 0 0 0 0 0 0 0 0 0 0 0 0 0 0 0 0 0 0 0 0 0
0 0 0 0 0 0 0 0 0 0 0 0 0 0 0 0 0 0 0 0 0 0 0 0 0 0 0 0 0 0 0 0 0 0 0 0 0 0
0 0 0 0 0 0 0 0 0 0 0 0 0 0 0 0 0 0 0 0 0 0 0 0 0 0 0 0 0 0 0 0 0 0 0 0 0 0
0 0 0 0 0 0 0 0 0 0 0 0 0 0 0 0 0 0 0 0 0 0 0 0 0 0 0 0 0 0 0 0 0 0 0 0 0 0
0 0 0 0 0 0 0 0 0 0 -0 0 0 0 0 0 0 0 0 0 0 0 0 0 0 0 0 0 0 0 0 0 0 0 0 0 0 0
0 0 0 0 0 0 0 0 -0 0 0 0 0 0 0 0 0 0 0 0 0 0 0 0 0 0 0 0 0 0 0 0 0 0 0 0 0 0
0 0 0 0 0 0 0 0 0 0 0 0 0 0 0 0 0 0 0 0 0 0 0 0 0 0 0 0 0 0 0 0 0 0 0 0 0 0
0 0 0 0 0 0 0 0 0 0 0 0 0 0 0 0 0 0 0 0 0 -0 0 0 0 0 0 0 0 0 0 0 0 0 0 0 0 0
0 0 0 0 0 0 0 0 0 0 0 0 0 0 0 0 0 0 0 0 0 0 0 0 0 0 0 0 0 0 0 0 0 0 0 0 0 0
0 0 0 0 0 0 0 0 0 0 0 0 0 0 0 0 0 0 0 0 0 0 0 0 0 0 0 -0 0 0 0 0 0 0 0 0 0 0
0 0 0 0 0 0 0 0 0 0 0 0 0 0 0 0 0 0 0 0 0 0 0 0 0 0 0 0 -0 0 0 0 0 0 0 0 0 0
0 0 0 0 0 0 0 0 0 0 0 0 0 0 0 0 0 0 0 0 0 0 0 0 0 0 0 0 -0 -0 -0 0 0 0 0 0 0 0
0 0 0 0 0 0 0 0 0 0 0 0 0 0 0 0 0 0 0 0 0 0 0 0 0 0 0 -0 -0 0 -0 -0 0 0 0 0 0 0
0 0 0 0 0 0 0 0 0 0 0 0 0 0 0 0 0 0 0 0 0 0 0 0 -0 -0 0 -0 -0 -0 -0 -0 -0 0 0 0 0 0
0 0 0 0 0 0 0 0 0 0 0 0 0 0 0 0 0 0 0 0 0 0 0 0 0 0 -0 0 -0 -0 0 -0 -0 -0 -0 -0 -0 0
0 0 0 0 0 0 0 0 0 0 0 0 0 0 0 0 0 0 0 0 0 0 0 0 0 0 0 0 0 -0 -0 -0 0 -0 -0 -0 -0 -0
Wind_Speed_500mb
17 9 2 9 8 10 15 16 11 7 12 21 15 22 25 22 28 29 28 27 27 31 34 37 35 36 38 43 43 40 41 43 44 45 49 45 57 57
16 19 28 25 25 27 25 22 16 8 7 14 23 24 28 31 32 33 36 36 40 41 40 41 43 46 46 45 46 44 43 42 41 44 46 48 58 62
32 27 25 21 17 14 10 7 3 12 13 19 24 24 24 26 31 34 37 37 41 44 44 48 52 57 57 56 56 55 56 54 53 52 49 50 52 61
16 13 13 10 7 7 7 11 14 17 16 19 20 18 24 29 32 33 32 32 36 37 39 42 49 54 58 60 64 67 63 64 63 64 59 55 50 54
13 9 6 7 8 10 13 16 18 18 16 15 18 21 25 28 30 31 36 39 34 36 39 40 38 40 48 60 59 62 72 76 76 73 69 60 54 52
15 17 19 18 18 17 14 14 15 13 17 15 18 20 21 26 32 28 32 31 35 37 38 38 38 39 36 40 57 61 59 65 70 77 73 64 56 55
19 19 19 19 16 15 12 17 19 18 20 20 21 23 27 28 32 32 34 37 35 35 33 30 31 30 33 35 38 53 61 58 60 60 63 66 60 55
17 17 17 17 20 20 21 23 24 26 21 22 26 29 30 32 33 34 37 39 41 32 32 36 34 33 30 25 28 31 42 49 55 62 48 66 62 50
21 18 17 18 17 19 22 23 24 26 28 28 25 27 32 32 36 38 37 39 43 43 38 40 30 34 29 26 31 31 33 37 48 65 64 48 53 49
25 19 17 17 18 18 20 21 23 24 29 29 35 40 40 43 43 42 45 43 46 38 33 38 29 31 28 30 31 33 33 32 34 45 57 55 57 51
34 31 28 26 26 25 24 25 28 30 35 37 37 38 38 37 38 37 34 37 41 39 34 38 35 37 37 29 26 25 22 21 25 27 32 46 55 53
29 31 34 34 32 31 32 31 34 44 45 42 34 31 31 32 36 37 36 39 42 43 27 30 30 30 28 20 16 13 19 19 16 22 30 33 38 40
20 23 29 33 34 34 38 34 40 43 36 33 31 32 31 31 31 35 38 38 40 43 39 39 40 35 31 31 27 35 21 20 22 19 22 26 33 38
17 20 25 30 33 35 33 36 39 32 30 31 34 40 47 40 42 40 40 45 44 52 51 44 48 34 34 29 29 22 20 27 19 16 19 21 27 31
16 20 24 25 32 30 36 36 34 28 36 34 39 52 49 37 38 37 37 34 36 38 40 38 37 34 39 42 39 31 27 23 19 15 16 19 21 25
19 21 21 20 29 33 31 30 26 28 36 40 45 54 46 41 43 38 39 44 38 28 23 22 27 29 31 29 31 31 27 21 11 12 16 17 15 18
15 17 13 18 26 31 30 26 24 29 36 36 44 53 52 43 46 43 52 46 39 30 21 19 13 13 15 19 24 23 20 19 20 24 23 18 16 14
17 14 13 20 26 31 27 27 24 30 33 34 44 48 55 50 46 45 54 42 47 52 27 17 13 6 12 7 11 15 18 20 16 12 12 16 19 18
10 8 14 19 25 26 26 26 24 30 32 31 39 49 49 55 45 49 47 42 38 41 44 35 12 11 14 7 13 10 7 4 8 16 13 11 11 14
8 13 14 18 23 27 25 26 23 29 29 33 33 42 46 51 53 45 44 37 25 34 38 43 27 9 17 21 20 20 20 21 14 8 5 7 7 9
12 15 16 19 22 24 25 24 22 26 32 31 34 39 42 46 48 46 40 38 32 31 30 31 26 22 17 14 19 18 16 14 13 12 10 8 7 5
14 16 15 17 21 22 23 22 23 24 30 30 31 34 43 42 43 45 37 41 34 28 25 24 18 13 11 14 19 24 22 12 12 14 13 11 10 4
12 14 11 16 19 20 22 22 23 24 31 31 31 34 37 44 39 35 37 36 37 29 27 23 22 19 18 15 16 15 17 10 19 22 32 30 25 18
Wind_Direction_500mb
290 297 353 9 36 66 93 86 65 22 328 297 281 253 254 267 277 277 274 272 273 272 267 266 263 259 255 253 251 250 250 254 258 259 260 253 250 248
69 69 69 60 51 44 45 45 40 19 287 281 277 268 268 274 277 280 282 283 281 277 275 269 266 261 256 252 253 251 247 249 257 265 270 260 254 251
73 63 54 51 50 54 35 16 318 274 277 271 277 278 278 283 283 284 281 280 278 279 278 278 274 265 260 256 254 250 248 247 251 252 260 264 255 251
62 50 36 36 11 344 321 310 303 308 294 281 269 282 287 291 294 297 298 295 292 289 288 287 279 272 266 262 255 253 252 250 251 253 251 254 253 250
69 57 26 2 336 316 311 301 303 302 289 287 298 299 296 297 301 306 303 299 301 304 303 292 285 279 271 262 263 261 257 251 250 249 249 248 247 247
11 358 352 343 339 333 333 333 335 338 329 324 308 302 301 298 308 311 305 302 299 301 299 298 283 282 278 271 256 259 258 259 260 253 248 243 247 250
351 352 353 354 347 345 351 335 338 340 327 324 312 313 310 311 306 301 303 303 306 310 308 304 292 285 290 286 278 260 261 262 262 249 244 237 242 247
32 37 30 17 16 10 5 358 350 346 346 337 325 319 317 312 307 304 304 304 304 307 300 304 296 289 282 266 272 280 271 260 247 247 251 238 236 249
33 23 22 6 357 351 348 348 346 341 338 333 326 320 312 309 305 303 297 292 292 294 293 295 301 288 283 274 272 283 283 269 254 241 242 236 233 239
31 28 27 18 7 359 356 354 353 351 337 331 321 318 312 308 303 299 297 296 298 297 288 284 291 289 282 284 280 285 288 274 275 252 240 234 241 243
49 48 46 38 32 24 20 10 1 350 341 332 320 311 307 303 302 304 297 294 297 296 294 289 291 282 280 279 283 293 289 282 277 252 240 237 237 244
47 46 41 35 27 20 9 4 356 350 347 348 344 338 330 319 316 304 294 288 289 292 294 290 289 299 292 278 263 277 315 305 289 255 243 237 227 224
43 40 33 27 23 15 8 1 354 349 354 349 346 342 333 326 319 304 304 297 288 281 285 279 280 273 271 272 278 284 299 302 302 271 247 236 233 232
31 26 17 13 7 6 4 359 354 5 359 356 352 348 342 329 326 323 309 301 291 283 285 279 276 271 265 270 275 281 285 291 284 297 251 236 235 235
16 1 352 353 355 357 356 358 4 2 0 357 351 358 351 352 346 336 337 324 303 290 286 280 268 267 261 263 271 269 276 277 270 255 279 245 244 242
348 342 346 348 353 357 358 357 0 0 2 359 4 1 359 4 7 359 358 350 336 338 332 294 261 258 264 261 269 270 261 261 236 282 277 242 249 247
324 333 351 351 351 350 351 357 0 6 7 5 5 4 10 9 13 5 5 0 1 346 346 348 308 268 261 271 272 274 277 250 252 278 279 224 242 226
312 333 347 354 353 353 358 359 358 7 7 7 8 9 12 13 11 10 11 25 38 34 31 350 333 301 268 270 294 266 255 265 288 241 223 228 246 253
317 353 352 356 356 358 357 357 356 9 8 3 4 7 10 15 15 11 18 24 34 29 26 31 42 83 357 53 1 349 2 8 205 194 211 221 256 281
10 350 348 348 352 354 352 352 353 8 8 7 3 3 7 11 17 10 13 17 22 22 38 47 58 35 49 78 85 71 81 96 87 64 327 290 290 309
348 339 339 341 345 349 349 351 356 0 8 10 9 4 7 13 15 14 9 20 26 32 27 32 40 48 47 64 82 86 90 98 65 48 44 13 334 345
341 339 335 342 348 350 356 360 358 0 11 13 10 8 11 7 15 18 11 15 25 29 31 31 37 43 60 79 93 91 83 90 55 43 30 41 11 336
338 339 349 349 352 3 10 9 9 10 12 10 9 10 14 9 16 22 17 15 20 25 27 37 46 49 67 99 74 84 112 63 92 79 68 66 64 56
Wind_Speed_850mb
17 9 2 9 8 10 15 16 11 7 12 21 15 22 25 22 28 29 28 27 27 31 34 37 35 36 38 43 43 40 41 43 44 45 49 45 57 57
16 19 28 25 25 27 25 22 16 8 7 14 23 24 28 31 32 33 36 36 40 41 40 41 43 46 46 45 46 44 43 42 41 44 46 48 58 62
32 27 25 21 17 14 10 7 3 12 13 19 24 24 24 26 31 34 37 37 41 44 44 48 52 57 57 56 56 55 56 54 53 52 49 50 52 61
16 13 13 10 7 7 7 11 14 17 16 19 20 18 24 29 32 33 32 32 36 37 39 42 49 54 58 60 64 67 63 64 63 64 59 55 50 54
13 9 6 7 8 10 13 16 18 18 16 15 18 21 25 28 30 31 36 39 34 36 39 40 38 40 48 60 59 62 72 76 76 73 69 60 54 52
15 17 19 18 18 17 14 14 15 13 17 15 18 20 21 26 32 28 32 31 35 37 38 38 38 39 36 40 57 61 59 65 70 77 73 64 56 55
19 19 19 19 16 15 12 17 19 18 20 20 21 23 27 28 32 32 34 37 35 35 33 30 31 30 33 35 38 53 61 58 60 60 63 66 60 55
17 17 17 17 20 20 21 23 24 26 21 22 26 29 30 32 33 34 37 39 41 32 32 36 34 33 30 25 28 31 42 49 55 62 48 66 62 50
21 18 17 18 17 19 22 23 24 26 28 28 25 27 32 32 36 38 37 39 43 43 38 40 30 34 29 26 31 31 33 37 48 65 64 48 53 49
25 19 17 17 18 18 20 21 23 24 29 29 35 40 40 43 43 42 45 43 46 38 33 38 29 31 28 30 31 33 33 32 34 45 57 55 57 51
34 31 28 26 26 25 24 25 28 30 35 37 37 38 38 37 38 37 34 37 41 39 34 38 35 37 37 29 26 25 22 21 25 27 32 46 55 53
29 31 34 34 32 31 32 31 34 44 45 42 34 31 31 32 36 37 36 39 42 43 27 30 30 30 28 20 16 13 19 19 16 22 30 33 38 40
20 23 29 33 34 34 38 34 40 43 36 33 31 32 31 31 31 35 38 38 40 43 39 39 40 35 31 31 27 35 21 20 22 19 22 26 33 38
17 20 25 30 33 35 33 36 39 32 30 31 34 40 47 40 42 40 40 45 44 52 51 44 48 34 34 29 29 22 20 27 19 16 19 21 27 31
16 20 24 25 32 30 36 36 34 28 36 34 39 52 49 37 38 37 37 34 36 38 40 38 37 34 39 42 39 31 27 23 19 15 16 19 21 25
19 21 21 20 29 33 31 30 26 28 36 40 45 54 46 41 43 38 39 44 38 28 23 22 27 29 31 29 31 31 27 21 11 12 16 17 15 18
15 17 13 18 26 31 30 26 24 29 36 36 44 53 52 43 46 43 52 46 39 30 21 19 13 13 15 19 24 23 20 19 20 24 23 18 16 14
17 14 13 20 26 31 27 27 24 30 33 34 44 48 55 50 46 45 54 42 47 52 27 17 13 6 12 7 11 15 18 20 16 12 12 16 19 18
10 8 14 19 25 26 26 26 24 30 32 31 39 49 49 55 45 49 47 42 38 41 44 35 12 11 14 7 13 10 7 4 8 16 13 11 11 14
8 13 14 18 23 27 25 26 23 29 29 33 33 42 46 51 53 45 44 37 25 34 38 43 27 9 17 21 20 20 20 21 14 8 5 7 7 9
12 15 16 19 22 24 25 24 22 26 32 31 34 39 42 46 48 46 40 38 32 31 30 31 26 22 17 14 19 18 16 14 13 12 10 8 7 5
14 16 15 17 21 22 23 22 23 24 30 30 31 34 43 42 43 45 37 41 34 28 25 24 18 13 11 14 19 24 22 12 12 14 13 11 10 4
12 14 11 16 19 20 22 22 23 24 31 31 31 34 37 44 39 35 37 36 37 29 27 23 22 19 18 15 16 15 17 10 19 22 32 30 25 18
Wind_Direction_850mb
290 297 353 9 36 66 93 86 65 22 328 297 281 253 254 267 277 277 274 272 273 272 267 266 263 259 255 253 251 250 250 254 258 259 260 253 250 248
69 69 69 60 51 44 45 45 40 19 287 281 277 268 268 274 277 280 282 283 281 277 275 269 266 261 256 252 253 251 247 249 257 265 270 260 254 251
73 63 54 51 50 54 35 16 318 274 277 271 277 278 278 283 283 284 281 280 278 279 278 278 274 265 260 256 254 250 248 247 251 252 260 264 255 251
62 50 36 36 11 344 321 310 303 308 294 281 269 282 287 291 294 297 298 295 292 289 288 287 279 272 266 262 255 253 252 250 251 253 251 254 253 250
69 57 26 2 336 316 311 301 303 302 289 287 298 299 296 297 301 306 303 299 301 304 303 292 285 279 271 262 263 261 257 251 250 249 249 248 247 247
11 358 352 343 339 333 333 333 335 338 329 324 308 302 301 298 308 311 305 302 299 301 299 298 283 282 278 271 256 259 258 259 260 253 248 243 247 250
351 352 353 354 347 345 351 335 338 340 327 324 312 313 310 311 306 301 303 303 306 310 308 304 292 285 290 286 278 260 261 262 262 249 244 237 242 247
32 37 30 17 16 10 5 358 350 346 346 337 325 319 317 312 307 304 304 304 304 307 300 304 296 289 282 266 272 280 271 260 247 247 251 238 236 249
33 23 22 6 357 351 348 348 346 341 338 333 326 320 312 309 305 303 297 292 292 294 293 295 301 288 283 274 272 283 283 269 254 241 242 236 233 239
31 28 27 18 7 359 356 354 353 351 337 331 321 318 312 308 303 299 297 296 298 297 288 284 291 289 282 284 280 285 288 274 275 252 240 234 241 243
49 48 46 38 32 24 20 10 1 350 341 332 320 311 307 303 302 304 297 294 297 296 294 289 291 282 280 279 283 293 289 282 277 252 240 237 237 244
47 46 41 35 27 20 9 4 356 350 347 348 344 338 330 319 316 304 294 288 289 292 294 290 289 299 292 278 263 277 315 305 289 255 243 237 227 224
43 40 33 27 23 15 8 1 354 349 354 349 346 342 333 326 319 304 304 297 288 281 285 279 280 273 271 272 278 284 299 302 302 271 247 236 233 232
31 26 17 13 7 6 4 359 354 5 359 356 352 348 342 329 326 323 309 301 291 283 285 279 276 271 265 270 275 281 285 291 284 297 251 236 235 235
16 1 352 353 355 357 356 358 4 2 0 357 351 358 351 352 346 336 337 324 303 290 286 280 268 267 261 263 271 269 276 277 270 255 279 245 244 242
348 342 346 348 353 357 358 357 0 0 2 359 4 1 359 4 7 359 358 350 336 338 332 294 261 258 264 261 269 270 261 261 236 282 277 242 249 247
324 333 351 351 351 350 351 357 0 6 7 5 5 4 10 9 13 5 5 0 1 346 346 348 308 268 261 271 272 274 277 250 252 278 279 224 242 226
312 333 347 354 353 353 358 359 358 7 7 7 8 9 12 13 11 10 11 25 38 34 31 350 333 301 268 270 294 266 255 265 288 241 223 228 246 253
317 353 352 356 356 358 357 357 356 9 8 3 4 7 10 15 15 11 18 24 34 29 26 31 42 83 357 53 1 349 2 8 205 194 211 221 256 281
10 350 348 348 352 354 352 352 353 8 8 7 3 3 7 11 17 10 13 17 22 22 38 47 58 35 49 78 85 71 81 96 87 64 327 290 290 309
348 339 339 341 345 349 349 351 356 0 8 10 9 4 7 13 15 14 9 20 26 32 27 32 40 48 47 64 82 86 90 98 65 48 44 13 334 345
341 339 335 342 348 350 356 360 358 0 11 13 10 8 11 7 15 18 11 15 25 29 31 31 37 43 60 79 93 91 83 90 55 43 30 41 11 336
338 339 349 349 352 3 10 9 9 10 12 10 9 10 14 9 16 22 17 15 20 25 27 37 46 49 67 99 74 84 112 63 92 79 68 66 64 56